| time (UTC) | temp F | wind direction | speed knots | gust knots | rain 1hr in | rain 24hr in | rain mn in | humidity % | barometer mb |
| 20260507111559 | 54 | 0 | 0.0 | 2.6 | 0.00 | 0.00 | 0.00 | 43 | 1019.1 |
| 20260507104602 | 54 | 0 | 0.0 | 1.7 | 0.00 | 0.00 | 0.00 | 42 | 1019.2 |
| 20260507103128 | 55 | 0 | 0.0 | 1.7 | 0.00 | 0.00 | 0.00 | 41 | 1019.2 |
| 20260507101556 | 54 | 227 | 1.7 | 4.3 | 0.00 | 0.00 | 0.00 | 42 | 1019.1 |
| 20260507100110 | 54 | 0 | 0.0 | 1.7 | 0.00 | 0.00 | 0.00 | 42 | 1019.1 |
| 20260507094603 | 55 | 276 | 0.9 | 2.6 | 0.00 | 0.00 | 0.00 | 41 | 1018.8 |
| 20260507093102 | 56 | 0 | 0.0 | 3.5 | 0.00 | 0.00 | 0.00 | 40 | 1018.8 |
| 20260507091556 | 55 | 0 | 0.0 | 2.6 | 0.00 | 0.00 | 0.00 | 41 | 1018.7 |
| 20260507090059 | 55 | 0 | 0.0 | 2.6 | 0.00 | 0.00 | 0.00 | 41 | 1018.7 |
| 20260507084606 | 56 | 0 | 0.9 | 2.6 | 0.00 | 0.00 | 0.00 | 39 | 1018.5 |
| 20260507083056 | 57 | 0 | 0.0 | 4.3 | 0.00 | 0.00 | 0.00 | 39 | 1018.5 |
| 20260507081558 | 57 | 0 | 0.0 | 2.6 | 0.00 | 0.00 | 0.00 | 39 | 1018.5 |
| 20260507080055 | 57 | 0 | 0.0 | 3.5 | 0.00 | 0.00 | 0.00 | 38 | 1018.5 |
| 20260507074602 | 57 | 272 | 1.7 | 2.6 | 0.00 | 0.00 | 0.00 | 38 | 1018.5 |
| 20260507073103 | 58 | 267 | 0.0 | 2.6 | 0.00 | 0.00 | 0.00 | 37 | 1018.6 |
| 20260507071607 | 58 | 246 | 0.9 | 2.6 | 0.00 | 0.00 | 0.00 | 37 | 1018.5 |
| 20260507070107 | 58 | 0 | 0.0 | 3.5 | 0.00 | 0.00 | 0.00 | 36 | 1018.3 |
| 20260507064600 | 58 | 260 | 1.7 | 3.5 | 0.00 | 0.00 | 0.00 | 37 | 1018.2 |
| 20260507063057 | 59 | 278 | 1.7 | 5.2 | 0.00 | 0.00 | 0.00 | 35 | 1018.1 |
| 20260507061559 | 59 | 0 | 0.0 | 1.7 | 0.00 | 0.00 | 0.00 | 35 | 1017.8 |
| 20260507054614 | 60 | 0 | 0.0 | 1.7 | 0.00 | 0.00 | 0.00 | 34 | 1017.7 |
| 20260507053105 | 62 | 267 | 0.0 | 2.6 | 0.00 | 0.00 | 0.00 | 32 | 1017.5 |
| 20260507051558 | 63 | 281 | 0.9 | 2.6 | 0.00 | 0.00 | 0.00 | 31 | 1017.2 |
| 20260507050059 | 64 | 0 | 0.0 | 0.9 | 0.00 | 0.00 | 0.00 | 31 | 1017.1 |
| 20260507044559 | 65 | 0 | 0.0 | 2.6 | 0.00 | 0.00 | 0.00 | 29 | 1016.9 |
| 20260507043057 | 67 | 279 | 1.7 | 4.3 | 0.00 | 0.00 | 0.00 | 28 | 1016.6 |
| 20260507041603 | 68 | 309 | 0.9 | 6.1 | 0.00 | 0.00 | 0.00 | 27 | 1016.3 |
| 20260507040059 | 68 | 267 | 1.7 | 7.8 | 0.00 | 0.00 | 0.00 | 26 | 1016.0 |
| 20260507034600 | 68 | 5 | 1.7 | 7.0 | 0.00 | 0.00 | 0.00 | 26 | 1015.6 |
| 20260507033059 | 69 | 0 | 0.0 | 5.2 | 0.00 | 0.00 | 0.00 | 26 | 1015.2 |
| 20260507031555 | 71 | 226 | 2.6 | 7.0 | 0.00 | 0.00 | 0.00 | 23 | 1014.9 |
| 20260507030101 | 72 | 259 | 3.5 | 9.6 | 0.00 | 0.00 | 0.00 | 22 | 1014.4 |
| 20260507024557 | 71 | 240 | 4.3 | 10.4 | 0.00 | 0.00 | 0.00 | 23 | 1014.2 |
| 20260507023055 | 71 | 252 | 2.6 | 6.1 | 0.00 | 0.00 | 0.00 | 23 | 1014.0 |
| 20260507021627 | 72 | 240 | 3.5 | 7.8 | 0.00 | 0.00 | 0.00 | 23 | 1013.8 |
| 20260507020110 | 72 | 242 | 2.6 | 8.7 | 0.00 | 0.00 | 0.00 | 23 | 1013.7 |
| 20260507014623 | 73 | 258 | 6.1 | 11.3 | 0.00 | 0.00 | 0.00 | 22 | 1013.7 |
| 20260507013101 | 75 | 206 | 2.6 | 7.0 | 0.00 | 0.00 | 0.00 | 20 | 1013.7 |
| 20260507011600 | 75 | 180 | 4.3 | 10.4 | 0.00 | 0.00 | 0.00 | 21 | 1013.5 |
| 20260507010055 | 75 | 182 | 1.7 | 8.7 | 0.00 | 0.00 | 0.00 | 21 | 1013.6 |
| 20260507004558 | 75 | 197 | 3.5 | 7.8 | 0.00 | 0.00 | 0.00 | 21 | 1013.5 |
| 20260507003054 | 77 | 120 | 3.5 | 10.4 | 0.00 | 0.00 | 0.00 | 19 | 1013.4 |
| 20260507001606 | 78 | 140 | 3.5 | 11.3 | 0.00 | 0.00 | 0.00 | 18 | 1013.3 |
| 20260507000123 | 78 | 128 | 1.7 | 9.6 | 0.00 | 0.00 | 0.00 | 18 | 1013.3 |
| 20260506234618 | 79 | 50 | 4.3 | 8.7 | 0.00 | 0.00 | 0.00 | 18 | 1013.2 |
| 20260506233059 | 79 | 109 | 2.6 | 11.3 | 0.00 | 0.00 | 0.00 | 18 | 1013.2 |
| 20260506231556 | 78 | 106 | 4.3 | 8.7 | 0.00 | 0.00 | 0.00 | 19 | 1013.2 |
| 20260506230103 | 79 | 75 | 5.2 | 10.4 | 0.00 | 0.00 | 0.00 | 19 | 1013.3 |
| 20260506224556 | 80 | 94 | 3.5 | 8.7 | 0.00 | 0.00 | 0.00 | 18 | 1013.4 |
| 20260506223100 | 80 | 177 | 2.6 | 7.8 | 0.00 | 0.00 | 0.00 | 18 | 1013.5 |
| 20260506221603 | 80 | 0 | 1.7 | 7.8 | 0.00 | 0.00 | 0.00 | 18 | 1013.9 |
| 20260506220056 | 78 | 165 | 2.6 | 7.8 | 0.00 | 0.00 | 0.00 | 18 | 1014.0 |
| 20260506214558 | 79 | 202 | 1.7 | 7.8 | 0.00 | 0.00 | 0.00 | 19 | 1014.4 |
| 20260506213056 | 76 | 9 | 2.6 | 10.4 | 0.00 | 0.00 | 0.00 | 19 | 1014.7 |
| 20260506211556 | 76 | 134 | 3.5 | 9.6 | 0.00 | 0.00 | 0.00 | 19 | 1014.9 |
| 20260506210055 | 77 | 25 | 2.6 | 9.6 | 0.00 | 0.00 | 0.00 | 19 | 1015.2 |
| 20260506204556 | 76 | 182 | 1.7 | 9.6 | 0.00 | 0.00 | 0.00 | 20 | 1015.3 |
| 20260506203054 | 76 | 55 | 0.9 | 8.7 | 0.00 | 0.00 | 0.00 | 20 | 1015.4 |
| 20260506201552 | 75 | 105 | 2.6 | 7.0 | 0.00 | 0.00 | 0.00 | 22 | 1015.4 |
| 20260506200100 | 75 | 175 | 1.7 | 11.3 | 0.00 | 0.00 | 0.00 | 22 | 1015.6 |
| 20260506194556 | 73 | 331 | 0.9 | 7.8 | 0.00 | 0.00 | 0.00 | 23 | 1015.9 |
| 20260506193059 | 74 | 137 | 1.7 | 7.8 | 0.00 | 0.00 | 0.00 | 23 | 1016.1 |
| 20260506191604 | 72 | 33 | 2.6 | 7.0 | 0.00 | 0.00 | 0.00 | 24 | 1016.3 |
| 20260506190059 | 71 | 29 | 3.5 | 6.1 | 0.00 | 0.00 | 0.00 | 25 | 1016.5 |
| 20260506184558 | 71 | 342 | 3.5 | 8.7 | 0.00 | 0.00 | 0.00 | 25 | 1016.7 |
| 20260506183102 | 69 | 87 | 3.5 | 7.8 | 0.00 | 0.00 | 0.00 | 27 | 1017.0 |
| 20260506181604 | 70 | 115 | 2.6 | 7.8 | 0.00 | 0.00 | 0.00 | 27 | 1017.2 |
| 20260506180059 | 68 | 105 | 3.5 | 7.8 | 0.00 | 0.00 | 0.00 | 28 | 1017.2 |
| 20260506174554 | 68 | 86 | 0.9 | 7.0 | 0.00 | 0.00 | 0.00 | 29 | 1017.2 |
| 20260506173123 | 66 | 143 | 2.6 | 7.8 | 0.00 | 0.00 | 0.00 | 31 | 1017.3 |
| 20260506171556 | 66 | 86 | 1.7 | 7.0 | 0.00 | 0.00 | 0.00 | 30 | 1017.4 |
| 20260506170109 | 64 | 0 | 3.5 | 9.6 | 0.00 | 0.00 | 0.00 | 32 | 1017.5 |
| 20260506164555 | 63 | 0 | 1.7 | 6.1 | 0.00 | 0.00 | 0.00 | 32 | 1017.5 |
| 20260506163059 | 62 | 73 | 1.7 | 6.1 | 0.00 | 0.00 | 0.00 | 33 | 1017.6 |
| 20260506161555 | 61 | 101 | 1.7 | 7.0 | 0.00 | 0.00 | 0.00 | 35 | 1017.6 |
| 20260506160055 | 61 | 103 | 1.7 | 6.1 | 0.00 | 0.00 | 0.00 | 36 | 1017.6 |
| 20260506154610 | 60 | 88 | 0.9 | 4.3 | 0.00 | 0.00 | 0.00 | 37 | 1017.7 |
| 20260506153059 | 59 | 68 | 0.0 | 5.2 | 0.00 | 0.00 | 0.00 | 38 | 1017.6 |
| 20260506151558 | 58 | 0 | 1.7 | 4.3 | 0.00 | 0.00 | 0.00 | 38 | 1017.7 |
| 20260506150057 | 57 | 33 | 0.9 | 3.5 | 0.00 | 0.00 | 0.00 | 40 | 1017.8 |
| 20260506144559 | 57 | 0 | 0.9 | 2.6 | 0.00 | 0.00 | 0.00 | 40 | 1017.6 |
| 20260506143058 | 56 | 79 | 0.0 | 2.6 | 0.00 | 0.00 | 0.00 | 42 | 1017.5 |
| 20260506141602 | 55 | 0 | 0.0 | 1.7 | 0.00 | 0.00 | 0.00 | 43 | 1017.5 |
| 20260506140109 | 53 | 100 | 0.0 | 1.7 | 0.00 | 0.00 | 0.00 | 45 | 1017.5 |
| 20260506134556 | 52 | 0 | 0.0 | 0.9 | 0.00 | 0.00 | 0.00 | 47 | 1017.4 |
| 20260506133126 | 50 | 0 | 0.0 | 0.9 | 0.00 | 0.00 | 0.00 | 49 | 1017.1 |
| 20260506131558 | 47 | 0 | 0.0 | 0.0 | 0.00 | 0.00 | 0.00 | 54 | 1016.9 |
| 20260506130122 | 44 | 0 | 0.0 | 0.0 | 0.00 | 0.00 | 0.00 | 58 | 1016.8 |
| 20260506124554 | 43 | 0 | 0.0 | 0.0 | 0.00 | 0.00 | 0.00 | 58 | 1016.5 |
| 20260506123054 | 44 | 0 | 0.0 | 0.0 | 0.00 | 0.00 | 0.00 | 56 | 1016.5 |
| 20260506121555 | 45 | 0 | 0.0 | 1.7 | 0.00 | 0.00 | 0.00 | 56 | 1016.1 |
| 20260506120058 | 45 | 239 | 1.7 | 3.5 | 0.00 | 0.00 | 0.00 | 55 | 1015.9 |
| 20260506114604 | 45 | 0 | 0.0 | 3.5 | 0.00 | 0.00 | 0.00 | 55 | 1016.0 |
| 20260506113055 | 44 | 0 | 0.0 | 0.0 | 0.00 | 0.00 | 0.00 | 56 | 1016.0 |